This is the latest recevied weather packets stored in our database for station/object G4WLC-1. If no packets are shown the sender has not sent any weather packets the latest 10 day(s).
| Time | Temp. | Humidity | Pressure | Rain* | Wind** | Luminosity | Snow |
|---|---|---|---|---|---|---|---|
| 1778157478 | 13.33° C | 70% | 1015.4 hPa | 0 mm | - | - | - |
| 1778157178 | 13.89° C | 67% | 1015.5 hPa | 0 mm | - | - | - |
| 1778156878 | 13.89° C | 67% | 1015.3 hPa | 0 mm | - | - | - |
| 1778156578 | 14.44° C | 67% | 1015.5 hPa | 0 mm | - | - | - |
| 1778156278 | 14.44° C | 69% | 1015.5 hPa | 0 mm | - | - | - |
| 1778155978 | 14.44° C | 69% | 1015.5 hPa | 0 mm | - | - | - |
| 1778155678 | 14.44° C | 67% | 1015.7 hPa | 0 mm | - | - | - |
| 1778155378 | 14.44° C | 66% | 1015.6 hPa | 0 mm | - | - | - |
| 1778155078 | 14.44° C | 66% | 1015.6 hPa | 0 mm | - | - | - |
| 1778154778 | 15° C | 65% | 1015.7 hPa | 0 mm | - | - | - |
| 1778154478 | 15.56° C | 67% | 1015.7 hPa | 0 mm | - | - | - |
| 1778154178 | 15.56° C | 64% | 1015.7 hPa | 0 mm | - | - | - |
| 1778153878 | 15.56° C | 66% | 1015.6 hPa | 0 mm | - | - | - |
| 1778153578 | 15° C | 66% | 1015.6 hPa | 0 mm | - | - | - |
| 1778153278 | 15° C | 70% | 1015.6 hPa | 0 mm | - | - | - |
| 1778152979 | 15° C | 68% | 1015.6 hPa | 0 mm | - | - | - |
| 1778152678 | 14.44° C | 70% | 1015.5 hPa | 0 mm | - | - | - |
| 1778152378 | 14.44° C | 69% | 1015.7 hPa | 0 mm | - | - | - |
| 1778152079 | 14.44° C | 67% | 1015.8 hPa | 0 mm | - | - | - |
| 1778151778 | 14.44° C | 71% | 1015.7 hPa | 0 mm | - | - | - |
| 1778151479 | 14.44° C | 69% | 1015.7 hPa | 0 mm | - | - | - |
| 1778151179 | 14.44° C | 72% | 1015.9 hPa | 0 mm | - | - | - |
| 1778150878 | 14.44° C | 71% | 1015.9 hPa | 0 mm | - | - | - |
| 1778150578 | 14.44° C | 75% | 1016 hPa | 0 mm | - | - | - |
| 1778150278 | 14.44° C | 73% | 1016 hPa | 0 mm | - | - | - |
* Rain latest hour (hover to see other rain measurements)
** Current wind speed in m/s (hover to see current wind gust speed)